Location: Asheville, NC
(35.6000°N, 82.5500°W)
Time: 19:44:08
(UTC-04:00)

AAUSAT CUBESAT 2 - Pass Details

Date: 12 March 2018
Orbit: 576 x 592 km, 97.5° (Epoch: 23 June)

Event Time Altitude Azimuth Distance (km) Brightness Sun altitude
Rises 21:39:50 0° 211° (SSW) 2,780 ? -25.9°
Reaches altitude 10° 21:43:06 10° 240° (WSW) 1,891 ? -26.5°
Maximum altitude 21:44:59 13° 268° (W) 1,716 ? -26.9°
Drops below altitude 10° 21:46:52 10° 295° (WNW) 1,902 ? -27.3°
Sets 21:50:11 0° 324° (NW) 2,812 ? -27.9°
